Tracking 23446 objects as of 20-Jun-2021
HD Live streaming from Space Station
objects crossing your sky now

ONEWEB-0190

Track ONEWEB-0190 now!
10-day predictions
ONEWEB-0190 is classified as:


NORAD ID: 48796
Int'l Code: 2021-045AF
Perigee: 481.3 km
Apogee: 493.0 km
Inclination: 87.4 °
Period: 94.2 minutes
Semi major axis: 6858 km
RCS: Unknown
Launch date: May 28, 2021
Source: United Kingdom (UK)
Launch site: VOSTOCHNY COSMODROME (VOSTO)
aabbcc
Your satellite tracking list
Your tracking list is empty




NASA's NSSDC Master Catalog

Two Line Element Set (TLE):
1 48796U 21045AF  21170.83334491 -.00998742  00000-0 -38959-1 0  9998
2 48796  87.4060 268.8091 0008578 186.7392  61.1813 15.28597300  1875
Source of the keplerian elements: AFSPC